Terminal Aerodrome Forecast
Issued by NWS Boise, ID

Home | Current Version | Previous Version | Text Only | Print | Product List | Glossary On
Versions: 1 2 3 4 5 6 7 8 9 10 11 12 13 14 15 16 17 18 19 20 21 22 23
000
FTUS45 KBOI 022336
TAFBNO
TAF
KBNO 022336Z 0300/0324 20007KT P6SM BKN150
     FM030300 28011KT P6SM BKN110
      TEMPO 0303/0305 25015G30KT OVC100=

USA.gov is the U.S. government's official web portal to all federal, state and local government web resources and services.